Kerkyra, Greece

1:38 PM EEST on August 14, 2018 (GMT +0300)
Ioannis Kapodistrias

Weather History for LGKR - May, 2018

Change the Weather History Date:

Thursday, May 17, 2018

  Actual Average Record
Temperature  
Mean Temperature 66 °F -  
Max Temperature 76 °F 79 °F 84 °F (2015)
Min Temperature 55 °F 59 °F 53 °F (2004)
Growing Degree Days 16 (Base 50)    
Moisture  
Dew Point 60 °F    
Average Humidity 76    
Maximum Humidity 94    
Minimum Humidity 55    
Precipitation  
Precipitation 0.00 in 0.03 in - ()
Sea Level Pressure  
Sea Level Pressure 29.98 in    
Wind  
Wind Speed 3 mph ()    
Max Wind Speed 8 mph    
Max Gust Speed 17 mph    
Visibility 7.0 miles    
Events      
Averages and records for this station are not official NWS values.
T = Trace of Precipitation, MM = Missing Value Source: Averaged Metar Reports

Daily Weather History Graph

Daily Weather History Graph

Search for Another Location

Airport or City:

Astronomy

May. 17, 2018 Rise Set
Actual Time 6:24 AM EEST 8:49 PM EEST
Civil Twilight 5:53 AM EEST 9:20 PM EEST
Nautical Twilight 5:16 AM EEST 9:58 PM EEST
Astronomical Twilight 4:34 AM EEST 10:40 PM EEST
Moon 8:11 AM EEST (5/17) 11:03 PM EEST (5/17)
Length of Visible Light 15h 26m
Length of Day
14h 24m
Waxing Crescent, 5% of the Moon is Illuminated
May 17
Waxing Crescent
May 22
First Quarter
May 29
Full
Jun 6
Last Quarter
Jun 13
New

Hourly Weather History & Observations

Time (EEST) Temp. Dew Point Humidity Pressure Visibility Wind Dir Wind Speed Gust Speed Precip Events Conditions
12:00 AM 63 °F 56 °F 72% 29.99 in 6 mi West 2.3 mph - -   Clear
12:20 AM 62.6 °F 57.2 °F 82% 29.98 in - West 2.3 mph - N/A   Clear
12:50 AM 62.6 °F 57.2 °F 82% 29.98 in - WNW 2.3 mph - N/A   Clear
1:20 AM 62.6 °F 57.2 °F 82% 29.98 in - Calm Calm - N/A   Clear
1:50 AM 60.8 °F 53.6 °F 77% 29.98 in - WNW 2.3 mph - N/A   Clear
2:20 AM 60.8 °F 55.4 °F 82% 30.01 in - West 2.3 mph - N/A   Clear
2:50 AM 60.8 °F 53.6 °F 77% 30.01 in - Calm Calm - N/A   Clear
3:00 AM 60 °F 53 °F 72% 30.01 in 6 mi Calm Calm - -   Clear
3:20 AM 59.0 °F 53.6 °F 82% 30.01 in - Calm Calm - N/A   Clear
3:50 AM 59.0 °F 55.4 °F 88% 29.98 in - West 3.5 mph - N/A   Clear
4:50 AM 59.0 °F 55.4 °F 88% 29.95 in - West 2.3 mph - N/A   Clear
5:20 AM 57.2 °F 53.6 °F 88% 29.95 in - West 3.5 mph - N/A   Clear
5:50 AM 57.2 °F 53.6 °F 88% 29.95 in - WNW 2.3 mph - N/A   Clear
6:00 AM 56 °F 53 °F 87% 29.97 in 12 mi WNW 2.3 mph - -   Clear
6:20 AM 55.4 °F 51.8 °F 88% 29.95 in - WNW 3.5 mph - N/A   Clear
6:50 AM 57.2 °F 55.4 °F 94% 29.98 in - WNW 2.3 mph - N/A   Clear
7:20 AM 55.4 °F 53.6 °F 94% 29.98 in - West 3.5 mph - N/A   Clear
7:50 AM 57.2 °F 55.4 °F 94% 29.98 in - West 4.6 mph - N/A   Clear
8:20 AM 59.0 °F 55.4 °F 88% 29.98 in - Calm Calm - N/A   Clear
8:50 AM 62.6 °F 59.0 °F 88% 29.98 in - Calm Calm - N/A   Clear
9:20 AM 66.2 °F 60.8 °F 83% 29.98 in - Calm Calm - N/A   Clear
9:50 AM 68.0 °F 60.8 °F 78% 29.98 in 6.2 mi Calm Calm - N/A   Partly Cloudy
10:20 AM 69.8 °F 60.8 °F 73% 29.98 in 6.2 mi Calm Calm - N/A   Scattered Clouds
10:50 AM 71.6 °F 60.8 °F 69% 29.98 in 6.2 mi SE 4.6 mph - N/A   Scattered Clouds
11:20 AM 71.6 °F 60.8 °F 69% 29.98 in 6.2 mi SSE 4.6 mph - N/A   Scattered Clouds
11:50 AM 71.6 °F 60.8 °F 69% 30.01 in 6.2 mi SSE 4.6 mph - N/A   Scattered Clouds
12:00 PM 72 °F 61 °F 61% 30.01 in 12 mi SSE 4.6 mph - -   Partly Cloudy
12:20 PM 73.4 °F 60.8 °F 65% 30.01 in 6.2 mi SW 6.9 mph - N/A   Scattered Clouds
12:50 PM 73.4 °F 60.8 °F 65% 30.01 in 6.2 mi WNW 6.9 mph - N/A   Scattered Clouds
1:20 PM 73.4 °F 60.8 °F 65% 30.01 in 6.2 mi NNW 4.6 mph - N/A   Scattered Clouds
1:50 PM 75.2 °F 62.6 °F 65% 29.98 in 6.2 mi NE 4.6 mph - N/A   Scattered Clouds
2:20 PM 75.2 °F 62.6 °F 65% 29.98 in 6.2 mi East 5.8 mph 17.3 mph N/A   Scattered Clouds
2:50 PM 75.2 °F 62.6 °F 65% 29.98 in 6.2 mi East 5.8 mph - N/A   Scattered Clouds
3:00 PM 75 °F 62 °F 55% 30.00 in 12 mi ENE 5.8 mph - -   Partly Cloudy
3:50 PM 77.0 °F 62.6 °F 61% 29.98 in 6.2 mi East 6.9 mph - N/A   Scattered Clouds
4:20 PM 77.0 °F 62.6 °F 61% 29.98 in 6.2 mi ESE 5.8 mph - N/A   Scattered Clouds
4:50 PM 77.0 °F 62.6 °F 61% 29.98 in 6.2 mi SSE 8.1 mph - N/A   Scattered Clouds
5:20 PM 77.0 °F 62.6 °F 61% 29.98 in 6.2 mi SSE 8.1 mph - N/A   Scattered Clouds
5:50 PM 75.2 °F 64.4 °F 69% 29.98 in 6.2 mi SE 8.1 mph - N/A   Scattered Clouds
6:00 PM 75 °F 64 °F 61% 29.99 in 12 mi SE 8.1 mph - -   Partly Cloudy
6:20 PM 75.2 °F 64.4 °F 69% 29.98 in 6.2 mi SSE 6.9 mph - N/A   Scattered Clouds
6:50 PM 75.2 °F 64.4 °F 69% 29.98 in 6.2 mi SSE 4.6 mph - N/A   Scattered Clouds
7:50 PM 73.4 °F 62.6 °F 69% 29.98 in 6.2 mi SE 3.5 mph - N/A   Scattered Clouds
8:20 PM 73.4 °F 62.6 °F 69% 29.98 in 6.2 mi ESE 3.5 mph - N/A   Scattered Clouds
8:50 PM 71.6 °F 66.2 °F 83% 29.98 in 6.2 mi ESE 2.3 mph - N/A   Scattered Clouds
9:00 PM 71 °F 65 °F 78% 29.99 in 12 mi ESE 2.3 mph - -   Partly Cloudy
9:20 PM 71.6 °F 66.2 °F 83% 29.98 in 6.2 mi WNW 4.6 mph - N/A   Scattered Clouds
9:50 PM 69.8 °F 66.2 °F 88% 29.98 in 6.2 mi Calm Calm - N/A   Scattered Clouds
10:20 PM 68.0 °F 64.4 °F 88% 29.98 in 6.2 mi Calm Calm - N/A   Scattered Clouds
10:50 PM 66.2 °F 62.6 °F 88% 29.98 in 6.2 mi Calm Calm - N/A   Scattered Clouds
11:20 PM 66.2 °F 62.6 °F 88% 29.98 in 6.2 mi Calm Calm - N/A   Scattered Clouds
11:50 PM 64.4 °F 60.8 °F 88% 29.98 in 6.2 mi Calm Calm - N/A   Scattered Clouds